Zurück zum Katalog

FENGYUN 1C DEB

LostSSO
NORAD 31675·DEBRIS·🇨🇳 China

Gestartet May 10, 1999 von Taiyuan Satellite Launch Center

Loading…

Nächste Überflüge (nächste 24 Stunden)

TLE

VeraltetSource: Space-Track

Epoche: Sep 10, 2022, 21:15 UTC

1 31675U 99025CCH 22253.88558166  .00002750  00000-0  13468-2 0  9996
2 31675  98.4174 265.4687 0136089 162.3782 198.2181 14.13880533785568

Verfolge FENGYUN 1C DEB in Echtzeit mit AllMySat

Download on the App Store